Track ONEWEB-0615 now! 10-day predictions ONEWEB-0615 is classified as:
1 54676U 22166AL 24325.54872688 -.00000000 00000-0 -32039-4 0 9992 2 54676 87.9311 358.2613 0002131 95.7889 264.3488 13.21822887 96136